Location: Unspecified
(0.0000°N, 0.0000°E)
Time: 05:20:52
(UTC+01:00)

Coronas F rocket - Visible Passes

Search period start: 21 November 2014 00:00
Search period end: 01 December 2014 00:00
Orbit: 389 x 406 km, 82.5° (Epoch: 20 November)

Date Brightness Start Highest point End Pass type
(mag) Time Alt. Az. Time Alt. Az. Time Alt. Az.
24 Nov 4.8 20:46:04 12° SSW 20:46:04 12° SSW 20:46:23 10° SSW visible
25 Nov 3.1 19:52:54 22° ESE 19:52:54 22° ESE 19:54:29 10° SSE visible
26 Nov 3.9 20:31:49 20° WNW 20:32:59 25° W 20:35:35 10° SSW visible
27 Nov 2.2 19:38:19 10° NNE 19:41:09 35° E 19:44:00 10° SSE visible
28 Nov 4.4 20:19:54 10° NW 20:22:14 20° W 20:24:34 10° SW visible
29 Nov 1.9 19:27:21 10° NNE 19:30:18 46° E 19:33:16 10° SSE visible
30 Nov 4.8 20:09:19 10° NW 20:11:18 16° W 20:13:18 10° SW visible
